�������l�o���
Date,Time,MP-1(��Sv/h),MP-2(��Sv/h),MP-3(��Sv/h),MP-4(��Sv/h),MP-5(��Sv/h),MP-6(��Sv/h),MP-7(��Sv/h),MP-8(��Sv/h),����,����(m/s),���J
2020/06/14,00:00,0.694,0.986,0.637,1.223,0.869,0.399,0.694,0.646,�k��,2.0,��
2020/06/14,00:10,0.696,0.985,0.637,1.223,0.870,0.399,0.693,0.647,�k�k��,1.2,��
2020/06/14,00:20,0.696,0.987,0.636,1.225,0.871,0.398,0.695,0.647,�k��,1.2,��
2020/06/14,00:30,0.697,0.987,0.637,1.223,0.871,0.400,0.695,0.647,�k�k��,1.4,��
2020/06/14,00:40,0.694,0.987,0.637,1.223,0.870,0.398,0.693,0.647,�k�k��,0.9,��
2020/06/14,00:50,0.695,0.985,0.637,1.224,0.871,0.398,0.692,0.646,��,1.2,��
2020/06/14,01:00,0.693,0.987,0.636,1.222,0.869,0.399,0.694,0.646,���쐼,2.6,��
2020/06/14,01:10,0.695,0.987,0.637,1.225,0.869,0.398,0.693,0.649,���쐼,2.9,��
2020/06/14,01:20,0.694,0.987,0.635,1.224,0.870,0.399,0.692,0.645,���쐼,2.3,��
2020/06/14,01:30,0.695,0.986,0.639,1.225,0.867,0.399,0.694,0.646,���쐼,2.9,��
2020/06/14,01:40,0.694,0.985,0.638,1.223,0.867,0.398,0.692,0.646,���쐼,3.0,��
2020/06/14,01:50,0.696,0.988,0.636,1.222,0.870,0.398,0.692,0.646,���쐼,2.9,��
2020/06/14,02:00,0.692,0.986,0.637,1.221,0.871,0.399,0.693,0.645,���쐼,3.5,��
2020/06/14,02:10,0.697,0.986,0.636,1.223,0.869,0.398,0.695,0.645,���쐼,4.8,��
2020/06/14,02:20,0.694,0.985,0.638,1.223,0.868,0.398,0.693,0.646,�쐼,4.4,��
2020/06/14,02:30,0.693,0.984,0.636,1.223,0.868,0.399,0.694,0.645,�쐼,5.1,��
2020/06/14,02:40,0.692,0.984,0.636,1.224,0.867,0.398,0.694,0.647,�쐼,4.4,��
2020/06/14,02:50,0.694,0.985,0.636,1.226,0.868,0.399,0.694,0.647,�쐼,4.2,��
2020/06/14,03:00,0.694,0.985,0.636,1.224,0.868,0.398,0.694,0.646,���쐼,4.2,��
2020/06/14,03:10,0.693,0.985,0.637,1.226,0.868,0.398,0.693,0.647,���쐼,3.7,��
2020/06/14,03:20,0.696,0.985,0.637,1.221,0.869,0.398,0.694,0.647,�쐼,4.1,��
2020/06/14,03:30,0.693,0.986,0.636,1.224,0.868,0.398,0.694,0.646,�쐼,4.0,��
2020/06/14,03:40,0.694,0.985,0.635,1.224,0.868,0.399,0.694,0.646,��쐼,3.7,��
2020/06/14,03:50,0.693,0.986,0.636,1.222,0.869,0.399,0.694,0.646,��쐼,3.9,��
2020/06/14,04:00,0.692,0.986,0.636,1.225,0.868,0.399,0.694,0.646,��쐼,3.4,��
2020/06/14,04:10,0.695,0.985,0.638,1.224,0.870,0.398,0.692,0.646,��쐼,2.8,��
2020/06/14,04:20,0.695,0.985,0.637,1.224,0.869,0.399,0.695,0.647,��쐼,2.0,��
2020/06/14,04:30,0.693,0.986,0.637,1.222,0.868,0.398,0.694,0.646,��쐼,2.2,��
2020/06/14,04:40,0.694,0.986,0.636,1.223,0.868,0.396,0.694,0.646,�쐼,2.3,��
2020/06/14,04:50,0.691,0.984,0.635,1.224,0.868,0.398,0.693,0.646,�쐼,1.7,��
2020/06/14,05:00,0.692,0.983,0.638,1.224,0.868,0.398,0.694,0.645,���쐼,1.4,��
2020/06/14,05:10,0.694,0.986,0.636,1.223,0.870,0.398,0.693,0.647,��,1.2,��
2020/06/14,05:20,0.692,0.985,0.637,1.225,0.868,0.398,0.693,0.647,�k��,1.1,��
2020/06/14,05:30,0.693,0.984,0.637,1.224,0.869,0.396,0.693,0.647,�k,0.6,��
2020/06/14,05:40,0.694,0.986,0.635,1.224,0.868,0.398,0.695,0.647,�k�k��,0.6,��
2020/06/14,05:50,0.694,0.986,0.638,1.225,0.869,0.397,0.693,0.647,�k��,0.6,��
2020/06/14,06:00,0.696,0.987,0.635,1.222,0.866,0.399,0.693,0.646,-,CALM,��
2020/06/14,06:10,0.695,0.987,0.637,1.224,0.868,0.398,0.693,0.647,���k��,0.9,��
2020/06/14,06:20,0.696,0.986,0.638,1.225,0.870,0.398,0.695,0.647,-,CALM,��
2020/06/14,06:30,0.694,0.988,0.637,1.225,0.870,0.398,0.696,0.648,�쐼,0.8,��
2020/06/14,06:40,0.695,0.990,0.637,1.225,0.868,0.398,0.696,0.647,��쐼,1.4,��
2020/06/14,06:50,0.694,0.987,0.637,1.225,0.870,0.398,0.694,0.648,��쐼,1.7,��
2020/06/14,07:00,0.696,0.987,0.638,1.225,0.870,0.398,0.694,0.649,��,1.5,��
2020/06/14,07:10,0.696,0.987,0.638,1.226,0.870,0.397,0.693,0.648,��,1.4,��
2020/06/14,07:20,0.696,0.989,0.639,1.227,0.871,0.397,0.692,0.649,��,2.6,��
2020/06/14,07:30,0.695,0.989,0.638,1.225,0.872,0.396,0.692,0.649,��,1.7,��
2020/06/14,07:40,0.697,0.989,0.637,1.227,0.870,0.397,0.693,0.648,�쓌,3.0,��
2020/06/14,07:50,0.697,0.988,0.640,1.225,0.872,0.397,0.693,0.645,��쓌,3.2,��
2020/06/14,08:00,0.695,0.987,0.639,1.224,0.872,0.396,0.693,0.647,��쓌,3.2,��
2020/06/14,08:10,0.696,0.989,0.638,1.224,0.871,0.397,0.694,0.646,��쓌,3.5,��
2020/06/14,08:20,0.694,0.989,0.640,1.226,0.873,0.396,0.692,0.646,��쓌,3.0,��
2020/06/14,08:30,0.696,0.990,0.639,1.226,0.873,0.397,0.693,0.644,��쓌,2.6,��
2020/06/14,08:40,0.696,0.992,0.641,1.227,0.872,0.398,0.691,0.644,��,2.6,��
2020/06/14,08:50,0.697,0.993,0.643,1.228,0.875,0.397,0.694,0.646,��,3.1,��
2020/06/14,09:00,0.698,0.992,0.640,1.228,0.875,0.399,0.695,0.647,�쐼,1.5,��
2020/06/14,09:10,0.696,0.993,0.639,1.227,0.873,0.399,0.694,0.646,��쓌,1.9,��
2020/06/14,09:20,0.698,0.994,0.638,1.229,0.871,0.399,0.693,0.646,�쓌,2.6,��
2020/06/14,09:30,0.698,0.994,0.639,1.227,0.875,0.399,0.694,0.647,�쓌,3.3,��
2020/06/14,09:40,0.699,0.997,0.639,1.229,0.874,0.401,0.695,0.646,�쓌,3.0,��
2020/06/14,09:50,0.698,0.999,0.640,1.228,0.875,0.399,0.694,0.647,��쓌,5.0,��
2020/06/14,10:00,0.699,0.998,0.640,1.231,0.875,0.398,0.694,0.646,�쓌,4.5,��
2020/06/14,10:10,0.700,0.999,0.641,1.229,0.878,0.399,0.694,0.647,��쓌,4.5,��
2020/06/14,10:20,0.700,1.000,0.641,1.228,0.876,0.401,0.695,0.646,��쓌,6.2,��
2020/06/14,10:30,0.700,1.001,0.642,1.231,0.877,0.400,0.695,0.647,��쓌,7.3,��
2020/06/14,10:40,0.702,1.001,0.641,1.231,0.877,0.400,0.695,0.647,��쓌,8.4,��
2020/06/14,10:50,0.700,0.999,0.641,1.230,0.877,0.400,0.695,0.647,��쓌,9.6,��
2020/06/14,11:00,0.701,1.001,0.642,1.231,0.878,0.403,0.697,0.647,��,9.5,��
2020/06/14,11:10,0.700,1.002,0.642,1.230,0.877,0.399,0.697,0.648,��,9.0,��
2020/06/14,11:20,0.701,1.002,0.641,1.230,0.878,0.401,0.695,0.648,��,8.6,��
2020/06/14,11:30,0.698,1.003,0.641,1.229,0.878,0.401,0.694,0.647,��,10.5,��
2020/06/14,11:40,0.699,1.001,0.642,1.229,0.881,0.402,0.695,0.647,��,11.1,��
2020/06/14,11:50,0.702,1.002,0.641,1.229,0.880,0.402,0.695,0.645,��,9.9,��
2020/06/14,12:00,0.701,1.003,0.641,1.229,0.880,0.401,0.697,0.646,��,10.0,��
2020/06/14,12:10,0.701,1.001,0.642,1.228,0.882,0.401,0.695,0.648,��,12.7,��
2020/06/14,12:20,0.701,1.003,0.642,1.229,0.880,0.402,0.695,0.647,��쓌,13.1,��
2020/06/14,12:30,0.701,1.003,0.644,1.230,0.883,0.403,0.695,0.648,��,12.0,��
2020/06/14,12:40,0.700,1.004,0.644,1.230,0.880,0.402,0.695,0.648,��쓌,11.9,��
2020/06/14,12:50,0.702,1.005,0.642,1.230,0.881,0.402,0.695,0.648,��,9.7,��
2020/06/14,13:00,0.701,1.004,0.642,1.230,0.880,0.403,0.697,0.648,��쓌,10.2,��
2020/06/14,13:10,0.703,1.004,0.643,1.231,0.881,0.404,0.695,0.647,��,11.6,��
2020/06/14,13:20,0.703,1.006,0.644,1.230,0.882,0.401,0.695,0.649,��,13.3,��
2020/06/14,13:30,0.703,1.005,0.643,1.231,0.880,0.402,0.695,0.647,��,9.9,��
2020/06/14,13:40,0.704,1.004,0.643,1.231,0.882,0.404,0.696,0.648,��쓌,10.5,�L
2020/06/14,13:50,0.702,1.006,0.643,1.231,0.881,0.404,0.695,0.648,��,9.9,�L
2020/06/14,14:00,0.704,1.006,0.644,1.232,0.880,0.405,0.695,0.648,��,7.8,�L
2020/06/14,14:10,0.702,1.002,0.644,1.232,0.881,0.404,0.693,0.646,��,9.5,�L
2020/06/14,14:20,0.704,1.003,0.646,1.234,0.879,0.406,0.694,0.647,��,10.2,�L
2020/06/14,14:30,0.704,1.007,0.646,1.233,0.882,0.407,0.693,0.646,��,9.9,�L
2020/06/14,14:40,0.706,1.005,0.646,1.234,0.881,0.407,0.693,0.647,��,7.9,�L
2020/06/14,14:50,0.704,1.005,0.646,1.235,0.881,0.408,0.693,0.647,��,6.4,�L
2020/06/14,15:00,0.704,1.001,0.646,1.234,0.880,0.409,0.694,0.648,��,6.4,�L
2020/06/14,15:10,0.706,0.997,0.646,1.234,0.880,0.409,0.694,0.648,��,5.5,�L
2020/06/14,15:20,0.706,1.000,0.647,1.232,0.878,0.408,0.692,0.647,��,5.8,�L
2020/06/14,15:30,0.704,1.001,0.642,1.231,0.877,0.408,0.693,0.647,��,5.5,�L
2020/06/14,15:40,0.706,0.998,0.644,1.229,0.877,0.408,0.693,0.647,��,7.4,�L
2020/06/14,15:50,0.705,0.996,0.643,1.231,0.876,0.408,0.692,0.645,��,7.6,�L
2020/06/14,16:00,0.703,0.998,0.645,1.229,0.877,0.408,0.692,0.646,��쓌,8.4,�L
2020/06/14,16:10,0.703,0.995,0.643,1.231,0.874,0.408,0.692,0.646,��쓌,9.2,�L
2020/06/14,16:20,0.701,0.994,0.642,1.228,0.873,0.407,0.691,0.646,��쓌,10.0,�L
2020/06/14,16:30,0.699,0.993,0.640,1.228,0.873,0.404,0.691,0.644,��,8.2,�L
2020/06/14,16:40,0.698,0.991,0.640,1.226,0.872,0.404,0.691,0.644,��쓌,7.7,�L
2020/06/14,16:50,0.697,0.990,0.640,1.226,0.871,0.406,0.690,0.646,��,9.3,�L
2020/06/14,17:00,0.698,0.993,0.640,1.224,0.869,0.405,0.691,0.645,��쓌,10.7,�L
2020/06/14,17:10,0.696,0.990,0.641,1.226,0.870,0.405,0.690,0.645,��쓌,11.3,�L
2020/06/14,17:20,0.696,0.991,0.639,1.223,0.869,0.402,0.690,0.645,��,12.7,�L
2020/06/14,17:30,0.695,0.987,0.637,1.225,0.867,0.401,0.689,0.646,��쓌,11.8,�L
2020/06/14,17:40,0.693,0.989,0.638,1.223,0.869,0.402,0.690,0.644,��,11.4,�L
2020/06/14,17:50,0.695,0.988,0.637,1.227,0.866,0.402,0.690,0.644,��,10.3,�L
2020/06/14,18:00,0.696,0.991,0.638,1.222,0.867,0.401,0.690,0.643,��,9.2,�L
2020/06/14,18:10,0.693,0.986,0.637,1.223,0.867,0.403,0.690,0.644,��,8.2,�L
2020/06/14,18:20,0.695,0.983,0.638,1.221,0.868,0.403,0.690,0.645,��,7.7,�L
2020/06/14,18:30,0.694,0.987,0.637,1.224,0.866,0.402,0.689,0.645,��,6.0,�L
2020/06/14,18:40,0.695,0.987,0.637,1.224,0.868,0.402,0.690,0.644,��,7.1,�L
2020/06/14,18:50,0.695,0.988,0.638,1.223,0.867,0.404,0.687,0.643,��,7.4,�L
2020/06/14,19:00,0.695,0.986,0.638,1.220,0.864,0.403,0.690,0.643,��,7.1,�L
2020/06/14,19:10,0.692,0.983,0.637,1.222,0.863,0.403,0.691,0.644,��,6.7,�L
2020/06/14,19:20,0.693,0.985,0.636,1.221,0.865,0.401,0.688,0.644,��,8.0,��
2020/06/14,19:30,0.693,0.984,0.635,1.221,0.864,0.403,0.689,0.642,��,8.2,��
2020/06/14,19:40,0.693,0.985,0.637,1.222,0.865,0.402,0.691,0.643,��,7.2,�L
2020/06/14,19:50,0.692,0.985,0.638,1.218,0.866,0.399,0.691,0.645,��,7.6,�L
2020/06/14,20:00,0.694,0.982,0.637,1.222,0.861,0.403,0.691,0.645,��,5.9,�L
2020/06/14,20:10,0.693,0.984,0.635,1.219,0.865,0.401,0.691,0.644,��,6.1,�L
2020/06/14,20:20,0.690,0.986,0.636,1.220,0.864,0.402,0.691,0.646,��,6.9,�L
2020/06/14,20:30,0.694,0.982,0.635,1.220,0.864,0.402,0.691,0.644,��,8.0,�L
2020/06/14,20:40,0.693,0.984,0.637,1.221,0.865,0.400,0.691,0.644,��,7.9,�L
2020/06/14,20:50,0.692,0.982,0.637,1.218,0.863,0.403,0.690,0.643,��,8.0,�L
2020/06/14,21:00,0.693,0.984,0.639,1.221,0.864,0.402,0.691,0.642,��,6.6,�L
2020/06/14,21:10,0.694,0.983,0.637,1.218,0.862,0.401,0.690,0.643,��,7.2,�L
2020/06/14,21:20,0.690,0.983,0.635,1.221,0.862,0.403,0.690,0.645,��,6.8,�L
2020/06/14,21:30,0.692,0.981,0.636,1.219,0.864,0.402,0.690,0.644,��,6.4,�L
2020/06/14,21:40,0.691,0.982,0.636,1.219,0.860,0.402,0.689,0.643,��,7.9,�L
2020/06/14,21:50,0.692,0.982,0.637,1.220,0.862,0.402,0.689,0.644,��,6.8,�L
2020/06/14,22:00,0.693,0.982,0.637,1.220,0.864,0.404,0.690,0.644,��,7.5,�L
2020/06/14,22:10,0.694,0.982,0.638,1.218,0.865,0.403,0.691,0.642,��,6.8,�L
2020/06/14,22:20,0.692,0.981,0.636,1.217,0.862,0.401,0.690,0.644,��,5.7,��
2020/06/14,22:30,0.692,0.980,0.637,1.218,0.865,0.404,0.689,0.643,��쐼,5.0,�L
2020/06/14,22:40,0.691,0.980,0.635,1.217,0.862,0.404,0.690,0.645,��쐼,4.0,�L
2020/06/14,22:50,0.691,0.980,0.638,1.220,0.863,0.401,0.691,0.644,���쐼,2.2,�L
2020/06/14,23:00,0.691,0.985,0.635,1.221,0.861,0.405,0.692,0.644,�쐼,1.7,�L
2020/06/14,23:10,0.692,0.983,0.636,1.219,0.863,0.403,0.690,0.644,��쐼,2.2,�L
2020/06/14,23:20,0.694,0.982,0.637,1.220,0.864,0.402,0.690,0.644,��쐼,2.6,�L
2020/06/14,23:30,0.692,0.981,0.635,1.217,0.864,0.402,0.689,0.644,��쐼,2.3,��
2020/06/14,23:40,0.693,0.983,0.637,1.220,0.864,0.401,0.690,0.642,��,2.8,��
2020/06/14,23:50,0.692,0.982,0.636,1.219,0.863,0.403,0.691,0.644,��쐼,4.7,��
